This is the latest recevied weather packets stored in our database for station/object KI6PPU. If no packets are shown the sender has not sent any weather packets the latest 10 day(s).
| Time | Temp. | Humidity | Pressure | Rain* | Wind** | Luminosity | Snow |
|---|---|---|---|---|---|---|---|
| 1777589910 | 26.67° C | 46% | 1015.2 hPa | 0 mm | - | 265 W/m² | - |
| 1777589606 | 27.22° C | 47% | 1015 hPa | 0 mm | - | 613 W/m² | - |
| 1777589304 | 26.67° C | 44% | 1015 hPa | 0 mm | - | 608 W/m² | - |
| 1777589001 | 26.11° C | 50% | 1015.2 hPa | 0 mm | - | 313 W/m² | - |
| 1777588697 | 26.11° C | 47% | 1015.3 hPa | 0 mm | - | 662 W/m² | - |
| 1777588392 | 26.67° C | 49% | 1015.3 hPa | 0 mm | - | 670 W/m² | - |
| 1777588088 | 26.67° C | 47% | 1015.5 hPa | 0 mm | - | 558 W/m² | - |
| 1777587785 | 26.67° C | 46% | 1015.5 hPa | 0 mm | - | 678 W/m² | - |
| 1777587484 | 26.67° C | 47% | 1015.3 hPa | 0 mm | - | 648 W/m² | - |
| 1777587180 | 26.67° C | 51% | 1015.5 hPa | 0 mm | - | 618 W/m² | - |
| 1777586875 | 26.67° C | 47% | 1015.7 hPa | 0 mm | - | 593 W/m² | - |
| 1777586572 | 26.11° C | 49% | 1015.7 hPa | 0 mm | - | 278 W/m² | - |
| 1777586267 | 25.56° C | 48% | 1015.7 hPa | 0 mm | - | 580 W/m² | - |
| 1777585965 | 25.56° C | 46% | 1015.6 hPa | 0 mm | - | 645 W/m² | - |
| 1777585660 | 26.11° C | 49% | 1015.7 hPa | 0 mm | - | 624 W/m² | - |
| 1777585355 | 25.56° C | 46% | 1015.7 hPa | 0 mm | - | 724 W/m² | - |
| 1777585050 | 26.11° C | 52% | 1015.7 hPa | 0 mm | - | 710 W/m² | - |
| 1777584747 | 26.11° C | 47% | 1015.5 hPa | 0 mm | - | 697 W/m² | - |
| 1777584445 | 26.11° C | 52% | 1015.7 hPa | 0 mm | - | 664 W/m² | - |
| 1777584140 | 26.11° C | 45% | 1015.7 hPa | 0 mm | - | 470 W/m² | - |
| 1777583834 | 25.56° C | 48% | 1015.7 hPa | 0 mm | - | 659 W/m² | - |
| 1777583530 | 25.56° C | 48% | 1015.8 hPa | 0 mm | - | 635 W/m² | - |
| 1777583229 | 25.56° C | 48% | 1015.9 hPa | 0 mm | - | 707 W/m² | - |
| 1777582924 | 26.11° C | 47% | 1015.9 hPa | 0 mm | - | 779 W/m² | - |
| 1777582623 | 26.11° C | 46% | 1015.8 hPa | 0 mm | - | 732 W/m² | - |
* Rain latest hour (hover to see other rain measurements)
** Current wind speed in m/s (hover to see current wind gust speed)